Location: Krasnoyarskiy Pitomnik
(51.1333°N, 71.6167°E)
Time: 23:20:45
(UTC+00:00)

Courier 1B Rocket - Pass Details

Date: 24 April 2024
Orbit: 920 x 1201 km, 28.2° (Epoch: 19 May)

Event Time Altitude Azimuth Distance (km) Brightness Sun altitude
Exits shadow 22:55:11 - 207° (SSW) 3,383 7.3 -9.4°
Reaches altitude 10° 22:57:36 10° 191° (S) 3,072 7.2 -9.1°
Maximum altitude 22:59:22 11° 177° (S) 2,986 7.2 -8.9°
Drops below altitude 10° 23:01:07 10° 163° (SSE) 3,035 7.4 -8.6°
Sets 23:06:39 0° 130° (SE) 3,923 8.4 -7.9°
